KX4O-13 Weather Reports


time (UTC)temp
F
wind
direction
speed
knots
gust
knots
rain 1hr
in
rain 24hr
in
rain mn
in
humidity
%
barometer
mb
20260504235054 71 227 1.7 3.5 0.00 0.00 0.00 43 1010.0
20260504234554 71 190 1.7 7.0 0.00 0.00 0.00 43 1010.0
20260504234054 71 205 1.7 4.3 0.00 0.00 0.00 43 1010.0
20260504233554 71 224 2.6 9.6 0.00 0.00 0.00 43 1010.0
20260504233056 71 187 2.6 6.1 0.00 0.00 0.00 43 1010.0
20260504232554 71 202 2.6 7.8 0.00 0.00 0.00 43 1010.0
20260504232054 71 192 2.6 7.0 0.00 0.00 0.00 43 1009.9
20260504231554 71 181 3.5 10.4 0.00 0.00 0.00 43 1009.9
20260504231054 72 171 2.6 6.1 0.00 0.00 0.00 42 1009.9
20260504230554 71 240 3.5 10.4 0.00 0.00 0.00 42 1009.9
20260504230054 71 163 2.6 7.8 0.00 0.00 0.00 42 1009.9
20260504225554 71 209 3.5 7.0 0.00 0.00 0.00 41 1009.8
20260504225056 72 178 4.3 13.0 0.00 0.00 0.00 41 1009.8
20260504224554 72 226 5.2 10.4 0.00 0.00 0.00 41 1009.8
20260504224054 73 226 5.2 13.0 0.00 0.00 0.00 40 1009.8
20260504223554 73 213 5.2 10.4 0.00 0.00 0.00 40 1009.8
20260504223054 74 325 5.2 14.8 0.00 0.00 0.00 39 1009.8
20260504222554 74 258 5.2 13.0 0.00 0.00 0.00 39 1009.7
20260504222054 74 179 6.1 12.2 0.00 0.00 0.00 39 1009.6
20260504221554 74 200 7.0 15.6 0.00 0.00 0.00 39 1009.7
20260504221056 74 230 6.1 10.4 0.00 0.00 0.00 40 1009.6
20260504220554 74 184 7.0 12.2 0.00 0.00 0.00 39 1009.6
20260504220054 74 210 7.8 16.5 0.00 0.00 0.00 39 1009.6
20260504215554 74 212 7.0 14.8 0.00 0.00 0.00 37 1009.7
20260504215054 75 189 6.1 11.3 0.00 0.00 0.00 37 1009.6
20260504214554 75 192 5.2 14.8 0.00 0.00 0.00 37 1009.6
20260504214054 75 180 6.1 11.3 0.00 0.00 0.00 39 1009.7
20260504213554 75 207 6.1 13.0 0.00 0.00 0.00 37 1009.7
20260504213056 75 195 6.1 13.0 0.00 0.00 0.00 37 1009.7
20260504212554 75 196 7.8 14.8 0.00 0.00 0.00 36 1009.6
20260504212054 75 170 7.0 17.4 0.00 0.00 0.00 36 1009.5
20260504211554 75 203 7.0 12.2 0.00 0.00 0.00 37 1009.6
20260504211054 75 200 7.0 17.4 0.00 0.00 0.00 36 1009.5
20260504210554 75 189 6.1 13.0 0.00 0.00 0.00 37 1009.5
20260504210054 76 214 5.2 15.6 0.00 0.00 0.00 35 1009.5
20260504205554 77 197 4.3 14.8 0.00 0.00 0.00 36 1009.6
20260504205056 76 224 5.2 11.3 0.00 0.00 0.00 38 1009.5
20260504204554 75 210 7.0 13.9 0.00 0.00 0.00 35 1009.5
20260504204054 75 202 6.1 14.8 0.00 0.00 0.00 37 1009.7
20260504203554 75 175 6.1 13.9 0.00 0.00 0.00 37 1009.6
20260504203054 75 250 7.0 18.2 0.00 0.00 0.00 36 1009.8
20260504202554 75 184 7.0 13.0 0.00 0.00 0.00 37 1009.7
20260504202054 75 202 6.1 14.8 0.00 0.00 0.00 35 1009.8
20260504201554 75 197 5.2 11.3 0.00 0.00 0.00 36 1009.9
20260504201056 76 207 5.2 12.2 0.00 0.00 0.00 34 1009.9
20260504200554 76 192 6.1 13.9 0.00 0.00 0.00 34 1009.9
20260504200054 77 194 6.1 12.2 0.00 0.00 0.00 34 1009.8
20260504195554 78 184 3.5 13.0 0.00 0.00 0.00 33 1009.8
20260504195054 77 173 3.5 7.8 0.00 0.00 0.00 35 1009.9
20260504194554 76 281 7.0 12.2 0.00 0.00 0.00 35 1010.0
20260504194054 76 176 7.8 14.8 0.00 0.00 0.00 34 1010.1
20260504193554 77 214 7.0 14.8 0.00 0.00 0.00 34 1010.1
20260504193056 76 186 5.2 13.0 0.00 0.00 0.00 33 1010.2
20260504192554 76 214 4.3 7.0 0.00 0.00 0.00 33 1010.4
20260504192054 76 232 4.3 16.5 0.00 0.00 0.00 34 1010.5
20260504191554 77 189 3.5 8.7 0.00 0.00 0.00 32 1010.4
20260504191056 77 228 5.2 9.6 0.00 0.00 0.00 36 1010.6
20260504190554 76 189 7.0 12.2 0.00 0.00 0.00 35 1010.5
20260504190054 76 190 6.1 15.6 0.00 0.00 0.00 33 1010.8
20260504185554 76 173 5.2 12.2 0.00 0.00 0.00 34 1010.8
20260504185054 76 188 6.1 12.2 0.00 0.00 0.00 35 1010.9
20260504184555 75 196 6.1 11.3 0.00 0.00 0.00 33 1011.0
20260504184054 76 195 4.3 12.2 0.00 0.00 0.00 36 1011.0
20260504183554 75 229 5.2 9.6 0.00 0.00 0.00 37 1011.1
20260504183056 75 219 4.3 13.0 0.00 0.00 0.00 32 1011.2
20260504182554 75 161 3.5 12.2 0.00 0.00 0.00 35 1011.3
20260504182054 75 186 5.2 8.7 0.00 0.00 0.00 37 1011.3
20260504181556 75 271 7.0 13.0 0.00 0.00 0.00 34 1011.4
20260504181054 75 211 7.0 14.8 0.00 0.00 0.00 36 1011.5
20260504180554 75 160 6.1 15.6 0.00 0.00 0.00 35 1011.7
20260504180054 74 181 4.3 9.6 0.00 0.00 0.00 35 1011.7
20260504175554 74 188 4.3 13.0 0.00 0.00 0.00 35 1011.9
20260504175056 74 223 4.3 9.6 0.00 0.00 0.00 35 1011.9
20260504174554 74 225 4.3 11.3 0.00 0.00 0.00 36 1012.0
20260504174054 74 196 3.5 12.2 0.00 0.00 0.00 36 1011.8
20260504173554 73 264 3.5 9.6 0.00 0.00 0.00 34 1012.1
20260504173054 74 278 3.5 7.0 0.00 0.00 0.00 35 1012.2
20260504172554 75 234 3.5 11.3 0.00 0.00 0.00 36 1012.3
20260504172054 73 169 4.3 7.8 0.00 0.00 0.00 38 1012.3
20260504171554 73 202 5.2 12.2 0.00 0.00 0.00 33 1012.5
20260504171056 74 167 4.3 10.4 0.00 0.00 0.00 35 1012.4
20260504170554 73 209 4.3 11.3 0.00 0.00 0.00 35 1012.5
20260504151056 68 201 3.5 10.4 0.00 0.00 0.00 42 1014.0
20260504150554 67 242 3.5 8.7 0.00 0.00 0.00 41 1014.0
20260504141056 63 180 3.5 8.7 0.00 0.00 0.00 49 1014.4
20260504140554 63 194 3.5 7.8 0.00 0.00 0.00 50 1014.5
20260504130555 55 233 3.5 7.0 0.00 0.00 0.00 62 1014.8
20260504110555 43 347 0.0 0.0 0.00 0.00 0.00 86 1015.5
20260504100555 42 347 0.0 1.7 0.00 0.00 0.00 84 1015.2
20260504081555 44 173 0.0 1.7 0.00 0.00 0.00 81 1015.5
20260504081055 44 317 0.9 0.9 0.00 0.00 0.00 81 1015.5
20260504080555 44 317 0.0 0.9 0.00 0.00 0.00 81 1015.4
20260504050555 44 22 0.0 0.9 0.00 0.00 0.00 79 1015.8
20260504045555 44 22 0.0 0.0 0.00 0.00 0.00 77 1015.7
20260504045055 44 22 0.0 0.0 0.00 0.00 0.00 77 1015.7
20260504044555 44 22 0.0 0.9 0.00 0.00 0.00 77 1015.7
20260504044055 44 22 0.0 1.7 0.00 0.00 0.00 77 1015.8
20260504043555 44 22 0.9 0.0 0.00 0.00 0.00 77 1015.7
20260504043057 43 22 0.9 1.7 0.00 0.00 0.00 78 1015.7
20260504042555 43 22 0.9 0.9 0.00 0.00 0.00 77 1015.7
20260504042055 43 22 0.9 1.7 0.00 0.00 0.00 76 1015.6
20260504041555 43 22 0.0 0.9 0.00 0.00 0.00 77 1015.8
20260504041055 43 22 0.9 1.7 0.00 0.00 0.00 78 1015.7
20260504040555 43 22 0.9 0.9 0.00 0.00 0.00 78 1015.7
20260504040055 43 22 0.0 0.9 0.00 0.00 0.00 78 1015.6
20260504035555 43 22 0.0 0.9 0.00 0.00 0.00 76 1015.6
20260504035057 42 22 0.9 0.9 0.00 0.00 0.00 76 1015.6
20260504034555 43 22 0.9 0.9 0.00 0.00 0.00 76 1015.7
20260504034055 42 22 0.9 0.9 0.00 0.00 0.00 75 1015.6
20260504033555 42 22 0.9 1.7 0.00 0.00 0.00 74 1015.6
20260504033057 42 22 0.9 1.7 0.00 0.00 0.00 73 1015.7
20260504032555 42 22 0.9 1.7 0.00 0.00 0.00 71 1015.8
20260504032055 42 22 0.9 0.9 0.00 0.00 0.00 70 1015.8
20260504031555 43 22 0.9 1.7 0.00 0.00 0.00 66 1015.8
20260504031055 43 22 0.9 1.7 0.00 0.00 0.00 65 1015.7
20260504030555 43 172 0.9 0.9 0.00 0.00 0.00 65 1015.7
20260504030055 43 172 0.0 1.7 0.00 0.00 0.00 67 1015.8
20260504025555 43 172 0.0 1.7 0.00 0.00 0.00 68 1015.7
20260504025057 43 172 0.0 0.0 0.00 0.00 0.00 68 1015.7
20260504024555 43 172 0.0 0.0 0.00 0.00 0.00 68 1015.7
20260504024055 43 172 0.0 0.0 0.00 0.00 0.00 68 1015.6
20260504023555 43 172 0.0 0.0 0.00 0.00 0.00 69 1015.7
20260504023055 43 172 0.0 0.0 0.00 0.00 0.00 70 1015.7
20260504022555 43 172 0.0 0.0 0.00 0.00 0.00 69 1015.6
20260504022055 44 172 0.0 0.0 0.00 0.00 0.00 69 1015.5
20260504021555 43 172 0.0 0.0 0.00 0.00 0.00 68 1015.6
20260504021057 43 172 0.0 0.0 0.00 0.00 0.00 67 1015.6
20260504020555 43 172 0.0 0.0 0.00 0.00 0.00 68 1015.6
20260504020055 44 172 0.0 0.0 0.00 0.00 0.00 67 1015.5
20260504015555 43 172 0.0 0.0 0.00 0.00 0.00 69 1015.4
20260504015055 43 172 0.0 0.0 0.00 0.00 0.00 68 1015.4
20260504014555 43 172 0.0 0.0 0.00 0.00 0.00 69 1015.4
20260504014055 43 172 0.0 1.7 0.00 0.00 0.00 67 1015.3
20260504013555 44 172 0.9 0.0 0.00 0.00 0.00 65 1015.4
20260504013057 44 172 0.9 4.3 0.00 0.00 0.00 66 1015.3
20260504012555 44 173 0.0 4.3 0.00 0.00 0.00 65 1015.2
20260504012055 45 5 0.0 0.0 0.00 0.00 0.00 62 1015.2
20260504011555 46 5 0.0 0.0 0.00 0.00 0.00 63 1015.0
20260504011055 46 5 0.0 0.0 0.00 0.00 0.00 62 1014.9
20260504010555 46 5 0.0 0.0 0.00 0.00 0.00 63 1014.9
20260504010055 46 5 0.0 0.0 0.00 0.00 0.00 61 1014.8
20260504005555 47 5 0.0 0.0 0.00 0.00 0.00 60 1014.8
20260504005057 47 5 0.0 0.0 0.00 0.00 0.00 60 1014.9
20260504004555 47 5 0.0 0.0 0.00 0.00 0.00 61 1014.7
20260504004055 47 5 0.0 0.0 0.00 0.00 0.00 62 1014.7
20260504003556 47 5 0.0 0.0 0.00 0.00 0.00 60 1014.7
20260504003055 48 5 0.0 0.9 0.00 0.00 0.00 58 1014.6
20260504002555 49 5 0.0 1.7 0.00 0.00 0.00 54 1014.5
20260504002055 50 5 0.0 1.7 0.00 0.00 0.00 54 1014.6
20260504001555 50 5 0.0 1.7 0.00 0.00 0.00 54 1014.5
20260504001057 51 5 0.0 0.0 0.00 0.00 0.00 53 1014.5
20260504000555 51 5 0.0 0.0 0.00 0.00 0.00 52 1014.6
20260504000055 52 5 0.0 0.9 0.00 0.00 0.00 48 1014.5
20260503235555 53 5 0.0 1.7 0.00 0.00 0.00 46 1014.5